Погода в Ейске

Погода в Ейске : погода сейчас, прогноз погоды и архив. Всё, что Вы хотите узнать о погоде в Ейске!

Хотите узнать прогноз погоды в Ейске? Тогда Вам сюда: Погода в Ейске

Поиск расширенной информации на нашем сайте:

Другие новости

Новости СМИ2

Главная страница сайта

Новости сайта

03.07.2017

Напоминаем, что на нашем специализированном сайте Метеоцентр.Азия вы можете получить высокодетализированные автоматические прогнозы погоды по пунктам России, СНГ и мира в авиационном формате (включающие направление и скорость ветра, видимость, явления погоды, количество и форму облачности, нижнюю и верхнюю границу облачности).


Погода в Ейске - сегодня

Время (UTC), дата Ветер
(°,м/с) 
Видим.   Явления Облачность Т
(°С)
Тd
(°С)
f(%) Тe
(°С)
Pmin
(гПа)
dP
(гПа)
Po
(мм)
O2
(г/м3)
Тmin Tmax R s Состояние
почвы
21 21.06.18 360 (С) 10 км    ясно 
+25 +20.2 75 +44  1012.6  0.1  757  275           
00 22.06.18 090 (В) 10 км    ясно 
+24.3 +16 60 +34  1012.1  -0.5  757  277           
03 22.06.18 090 (В) 10 км    ясно 
+23.9 +12.5 49 +28  1011.7  -0.4  757  278  +23.8        сухая 
06 22.06.18 090 (В) 10 км    ясно 
+28.6 +11.5 35 +32  1011.5  -0.2  757  274           
09 22.06.18 040 (СВ) 10 км    ясно 
+27.9 +20.3 63 +47  1011  -0.5  756  272           
12 22.06.18 050 (СВ) 10 км    3/3 600 м 
[Cu hum]
+29.8 +19 52 +46  1009.3  -1.6  755  270           
15 22.06.18 050 (СВ) 10 км    3/3 600 м 
[Cu hum]
+30.7 +17.6 46 +44  1007.9  -1.4  754  269    +30.9       
18 22.06.18 060 (СВ) 10 км    5/5 600 м 
[Cu hum]
+28.4 +15.4 45 +38  1008  -0.1  754  272           
21 22.06.18 100 (В) 10 км    8/8 600 м 
[Cu hum]
+27.7 +12.3 38 +32  1007.7  -0.3  754  273           
00 23.06.18 120 (ЮВ) 10 км    8/8 600 м 
[Cu hum]
+25.5 +9.9 37 +26  1006.7  -1  753  276           
03 23.06.18 120 (ЮВ) 10 км    10/6 600 м верхняя 
[Cu hum|Ci fib]
+25.2 +9.3 37 +25  1006.5  -0.2  753  276  +24.7        сухая 
06 23.06.18 100 (В) 10 км    10/3 600 м верхняя 
[Cu hum|Ci fib]
+28.5 +10.3 32 +30  1006.3  -0.2  753  273           
09 23.06.18 170 (Ю) 6-10{10}  10 км    8/3 600 м верхняя 
[Cu med, cong|Ci fib]
+32.5 +14 33 +39  1006.6  0.3  753  268           
12 23.06.18 220 (ЮЗ) 8-11{12}  10 км    10/5 600 м верхняя 
[Cu med, cong|Ci fib]
+27.7 +18.6 58 +43  1007.3  0.7  753  271           
15 23.06.18 230 (ЮЗ) 10 км  слаб. ливневой дождь  10/10 600 м кучево-дожд. 
[Cb calv]
+24.3 +18.4 70 +39  1008.3  0.9  754  275    +33  0.0     
18 23.06.18 200 (Ю) 2{11}  10 км  в посл. час ливневой дождь  10/10 600 м кучево-дожд. 
[Cb calv]
+20.9 +19.8 93 +39  1008.9  0.6  755  278           
21 23.06.18 200 (Ю) 10 км    10/8 600 м верхняя 
[Cu med, cong|Ci fib]
+20.1 +19.2 95 +37  1008.6  -0.3  754  279           
00 24.06.18 200 (Ю) 10 км    10/10 300 м 
[Sc diur, vesp]
+19.8 +18.9 95 +37  1008.9  0.3  755  279           
03 24.06.18 170 (Ю) 10 км  в посл. час гроза{ливн. осадки}  10/8 300 м кучево-дожд., верхняя 
[Cb calv|Ci fib]
+20.5 +19.7 95 +38  1009.5  0.6  755  278  +19.6       
06 24.06.18 340 (С) 10 км  {гроза, ливн. осадки}  10/8 600 м кучево-дожд., верхняя 
[Cb calv|Ci fib]
+23.3 +19.4 79 +40  1010.3  0.8  756  276           
09 24.06.18 290 (З) 10 км    10/3 600 м верхняя 
[Cu med, cong|Ci fib]
+24.9 +19.7 73 +43  1012.3  2.1  757  275           
12 24.06.18 290 (З) 7{10}  10 км    8/3 600 м верхняя 
[Cu med, cong|Ci fib]
+24.9 +19.2 71 +41  1013.3  758  275           
15 24.06.18 280 (З) 5{10}  10 км    3/1 600 м верхняя 
[Cu hum|Ci fib]
+24.1 +18.3 70 +39  1013.6  0.3  758  277    +25.3       
18 24.06.18 220 (ЮЗ) 10 км    1/1 600 м 
[Cu med, cong]
+21.1 +16.9 77 +33  1014.9  1.3  759  280           
21 24.06.18 040 (СВ) 10 км    3/0 верхняя 
[Ci fib]
+22 +17.7 77 +35  1015.6  0.6  760  279           
Время (UTC), дата Ветер
(°,м/с) 
Видим.   Явления Облачность Т
(°С)
Тd
(°С)
f(%) Тe
(°С)
Pmin
(гПа)
dP
(гПа)
Po
(мм)
O2
(г/м3)
Тmin Tmax R s Состояние
почвы

Для получения пояснительной информации подведите курсор к названию столбца.

ПОГОДА в Ейске - архив

Всё, что Вы хотите узнать о погоде в Ейске - удобно и подробно!

Выберите нужную дату (начиная с 1 января 2015* года) и нажмите кнопку "Найти".
Будут отображены архивные сводки погоды по пункту Ейск, начиная с указанной даты.


Отображать данные в формате CSV (для использования в таблицах Excel)


Внимание! Наш архив погоды предназначен исключительно для личного некоммерческого использования в познавательных целях. Если Вам необходимы официальные справки о состоянии погоды (для производственных, юридических, коммерческих и т.п. целей), обращайтесь в органы Росгидромета.

*Примечание: данная дата относится к архиву по метеостанциям СССР (Россия, СНГ, Балтия).
Архив по метеостанциям Зарубежной Европы и Азии (кроме Китая) хранится 10 дней, по другим регионам земного шара (Китай, Африка, Америка, Австралия, Океания) - 1 день.

Ейск - район местоположения метеостанции


Название, широта, долгота, высота метеостанции:
Ейск 46.8°ш. 38.3°д. 3 м над ур. моря [Российская Федерация]

Дополнительная информация

В oтличие oт бoльшинства пoгoдных сайтoв мы публикуем пoдрoбную метеoинфoрмацию в детальнoм прoфессиoнальнoм фoрмате.

Характеристики температуры и влажнoсти вoздуха измеряются на высoте 2 м в тени вдали oт зданий и деревьев.
Скoрoсть ветра измеряется на высoте 10 м (на урoвне рoста челoвека скoрoсть ветра ниже в 1.5-2 раза). Если метеoстанция нахoдится в гoрoде или в лесу, тo скoрoсть ветра занижена на 2-4 м/с пo сравнению с oткрытым местoм. Скoрoсть ветра над акватoриями крупных рек и oзёр, а также на вершинах хoлмoв на 2-5 м/с выше, чем в oбычных услoвиях.
Атмoсфернoе давление в разных тoчках местнoсти мoжет значительнo oтличаться oт давления на метеoстанции, в зависимoсти oт услoвий рельефа (при пoдъёме на 10 м давление пoнижается примернo на 1 мм рт.ст.).